Weather in Galaba

Uzbekistan     40°29′41″N   68°19′01″E
temp.,
°C
wind,
m/s
gust,
m/s
humid.,
%
clouds,
%
prec.,
mm/h
press.,
hPa
HPBL,
m
10 april, sat
sat1023:00+16ne36470 0.0 101684
02:00+15sw11520 0.0 101510
05:00+14nne11510 0.0 101610
08:00+17ene11430 0.0 101893
11:00+22ese33260 0.0 1017831
14:00+25nne22210 0.0 10161621
17:00+25n22220 0.0 10161624
20:00+20nne22350 0.0 101715
11 april, sun
sun1123:00+19nnw22340 0.0 101713
02:00+16wnw11410 0.0 101711
05:00+13nw48630 0.0 1018179
08:00+13nw46370 0.0 1020360
11:00+16nw44270 0.0 1020812
14:00+19nnw33270 0.0 10191221
17:00+19n23270 0.0 10181338
20:00+15nne46430 0.0 1018139
12 april, mon
mon1223:00+13n22490 0.0 101822
02:00+12nw22520 0.0 101815
05:00+9nnw34610 0.0 1019101
08:00+11nnw23500 0.0 1020351
11:00+15nw11380 0.0 1018747
14:00+19nw22320 0.0 1017902
17:00+20nw33300 0.0 10161050
20:00+17n223880 0.0 101724
13 april, tue
tue1323:00+15n2246100 0.0 101721
02:00+14nw2350100 0.0 101861
05:00+13ene1149100 0.0 101910
08:00+14sse3359100 0.0 1020275
11:00+18se3355100 0.0 1019789
14:00+21ese4547100 0.0 10181259
17:00+19sse81056100 0.0 1018668
20:00+17sse61160100 0.0 1019452
14 april, wed
wed1423:00+15sse356236 0.0 101892
02:00+14sse22595 0.0 101713
05:00+15ese365499 0.0 1017106
08:00+17ese134996 0.0 1017188
11:00+23se453460 0.0 10151111
14:00+25se343086 0.0 10132654
17:00+24w2236100 0.0 101298
20:00+21ssw224613 0.0 101226